Terug naar catalogus

STARLINK-38048

ActiefCommunicatieSSO
NORAD 69754·PAYLOAD·🇺🇸 United States

Gelanceerd Jul 2, 2026 vanaf Vandenberg Space Force Base

Loading…

Volgende Passages (komende 24 uur)

TLE

VersSource: CelesTrak SupGP

Epoch: Sep 15, 2026, 02:59 UTC

1 69754C 26150R   26258.12479167 -.00035044  00000+0 -10878-2 0  2586
2 69754  97.2845  97.1489 0001812  91.2908 260.1119 15.33458909    15

Volg STARLINK-38048 in realtime met AllMySat

Download on the App Store